Powrót do katalogu

PRAETORIAN SDA_510

AktywnyMilitariaPO
NORAD 100068·PAYLOAD·🇺🇸 United States

Wystrzelony Jul 16, 2026 z Vandenberg Space Force Base

Loading…

Następne Przeloty (najbliższe 24 godziny)

TLE

ŚwieżeSource: Space-Track

Epoka: Sep 14, 2026, 09:49 UTC

1 A0068U 26163K   26257.40910359  .00000128  00000-0  10180-3 0  9999
2 A0068  81.4756 255.5197 0014080  57.0727 303.1783 13.85412091  8256

Śledź PRAETORIAN SDA_510 w czasie rzeczywistym z AllMySat

Download on the App Store